owner,sensor,date,latitude,longitude,vertical_datum,direction_of_sea_water_velocity,sea_water_speed,upward_sea_water_velocity,qcFlag 
TABS,ioos:station:wmo:42044:1,2015-03-16T00:00:00Z,26.1914,-97.0507,2.0,338.1562846,17.49621959,-99999.0,'11111222,11111222,99999999' 
TABS,ioos:station:wmo:42044:1,2015-03-16T00:30:00Z,26.1914,-97.0507,2.0,349.680338,23.83559104,-99999.0,'11111222,11111222,99999999' 
TABS,ioos:station:wmo:42044:1,2015-03-16T01:00:00Z,26.1914,-97.0507,2.0,4.476968165,18.57667624,-99999.0,'11111222,11111222,99999999' 
TABS,ioos:station:wmo:42044:1,2015-03-16T01:30:00Z,26.1914,-97.0507,2.0,82.40537439,16.04071071,-99999.0,'11111222,11111222,99999999' 
TABS,ioos:station:wmo:42044:1,2015-03-16T02:00:00Z,26.1914,-97.0507,2.0,113.2763241,30.94895475,-99999.0,'11111222,11111222,99999999' 
TABS,ioos:station:wmo:42044:1,2015-03-16T02:30:00Z,26.1914,-97.0507,2.0,101.7473357,51.37608004,-99999.0,'11111222,11111222,99999999' 
TABS,ioos:station:wmo:42044:1,2015-03-16T03:00:00Z,26.1914,-97.0507,2.0,106.3454502,49.17765448,-99999.0,'11111222,11111222,99999999' 
TABS,ioos:station:wmo:42044:1,2015-03-16T03:30:00Z,26.1914,-97.0507,2.0,100.4262568,47.68738722,-99999.0,'11111222,11111222,99999999' 
TABS,ioos:station:wmo:42044:1,2015-03-16T04:00:00Z,26.1914,-97.0507,2.0,98.18257891,49.39284361,-99999.0,'11111222,11111222,99999999' 
TABS,ioos:station:wmo:42044:1,2015-03-16T04:30:00Z,26.1914,-97.0507,2.0,96.55573707,49.31244265,-99999.0,'11111222,11111222,99999999' 
TABS,ioos:station:wmo:42044:1,2015-03-16T05:00:00Z,26.1914,-97.0507,2.0,94.77298291,45.78878684,-99999.0,'11111222,11111222,99999999' 
TABS,ioos:station:wmo:42044:1,2015-03-16T05:30:00Z,26.1914,-97.0507,2.0,86.87674787,46.06842845,-99999.0,'11111222,11111222,99999999' 
TABS,ioos:station:wmo:42044:1,2015-03-16T06:00:00Z,26.1914,-97.0507,2.0,88.22500307,46.81246202,-99999.0,'11111222,11111222,99999999' 
TABS,ioos:station:wmo:42044:1,2015-03-16T06:30:00Z,26.1914,-97.0507,2.0,86.16680307,43.8280481,-99999.0,'11111222,11111222,99999999' 
TABS,ioos:station:wmo:42044:1,2015-03-16T07:00:00Z,26.1914,-97.0507,2.0,81.14925472,44.97554891,-99999.0,'11111222,11111222,99999999' 
TABS,ioos:station:wmo:42044:1,2015-03-16T07:30:00Z,26.1914,-97.0507,2.0,79.46238256,42.48653669,-99999.0,'11111222,11111222,99999999' 
TABS,ioos:station:wmo:42044:1,2015-03-16T08:00:00Z,26.1914,-97.0507,2.0,79.05868859,44.2035304,-99999.0,'11111222,11111222,99999999' 
TABS,ioos:station:wmo:42044:1,2015-03-16T08:30:00Z,26.1914,-97.0507,2.0,79.3146513,46.05864957,-99999.0,'11111222,11111222,99999999' 
TABS,ioos:station:wmo:42044:1,2015-03-16T09:00:00Z,26.1914,-97.0507,2.0,78.08607246,43.15971501,-99999.0,'11111222,11111222,99999999' 
TABS,ioos:station:wmo:42044:1,2015-03-16T09:30:00Z,26.1914,-97.0507,2.0,75.62587461,45.23610615,-99999.0,'11111222,11111222,99999999' 
TABS,ioos:station:wmo:42044:1,2015-03-16T10:00:00Z,26.1914,-97.0507,2.0,74.38489521,48.85309611,-99999.0,'11111222,11111222,99999999' 
TABS,ioos:station:wmo:42044:1,2015-03-16T10:30:00Z,26.1914,-97.0507,2.0,77.75757927,44.70667176,-99999.0,'11111222,11111222,99999999' 
TABS,ioos:station:wmo:42044:1,2015-03-16T11:00:00Z,26.1914,-97.0507,2.0,76.90239457,42.93699221,-99999.0,'11111222,11111222,99999999' 
TABS,ioos:station:wmo:42044:1,2015-03-16T11:30:00Z,26.1914,-97.0507,2.0,77.04127139,50.3010815,-99999.0,'11111222,11111222,99999999' 
TABS,ioos:station:wmo:42044:1,2015-03-16T12:00:00Z,26.1914,-97.0507,2.0,74.00254199,57.40300341,-99999.0,'11111222,11111222,99999999' 
TABS,ioos:station:wmo:42044:1,2015-03-16T12:30:00Z,26.1914,-97.0507,2.0,76.21393507,58.33037373,-99999.0,'11111222,11111222,99999999' 
TABS,ioos:station:wmo:42044:1,2015-03-16T13:00:00Z,26.1914,-97.0507,2.0,76.99177957,62.99664118,-99999.0,'11111222,11111222,99999999' 
TABS,ioos:station:wmo:42044:1,2015-03-16T13:30:00Z,26.1914,-97.0507,2.0,79.19530328,65.6132037,-99999.0,'11111222,11111222,99999999' 
TABS,ioos:station:wmo:42044:1,2015-03-16T14:00:00Z,26.1914,-97.0507,2.0,81.58755183,65.14088194,-99999.0,'11111222,11111222,99999999' 
TABS,ioos:station:wmo:42044:1,2015-03-16T14:30:00Z,26.1914,-97.0507,2.0,82.72692349,69.58992025,-99999.0,'11111222,11111222,99999999' 
TABS,ioos:station:wmo:42044:1,2015-03-16T15:00:00Z,26.1914,-97.0507,2.0,85.60950995,74.98003201,-99999.0,'11111222,11111222,99999999' 
TABS,ioos:station:wmo:42044:1,2015-03-16T15:30:00Z,26.1914,-97.0507,2.0,82.73423674,74.71998996,-99999.0,'11111222,11111222,99999999' 
TABS,ioos:station:wmo:42044:1,2015-03-16T16:00:00Z,26.1914,-97.0507,2.0,86.40204995,71.07008161,-99999.0,'11111222,11111222,99999999' 
TABS,ioos:station:wmo:42044:1,2015-03-16T16:30:00Z,26.1914,-97.0507,2.0,84.86624936,73.53498487,-99999.0,'11111222,11111222,99999999' 
TABS,ioos:station:wmo:42044:1,2015-03-16T17:00:00Z,26.1914,-97.0507,2.0,85.50568953,68.01915171,-99999.0,'11111222,11111222,99999999' 
TABS,ioos:station:wmo:42044:1,2015-03-16T17:30:00Z,26.1914,-97.0507,2.0,87.07399725,60.72917338,-99999.0,'11111222,11111222,99999999' 
TABS,ioos:station:wmo:42044:1,2015-03-16T18:00:00Z,26.1914,-97.0507,2.0,91.15995581,57.30174256,-99999.0,'11111222,11111222,99999999' 
TABS,ioos:station:wmo:42044:1,2015-03-16T18:30:00Z,26.1914,-97.0507,2.0,89.86660979,64.43017461,-99999.0,'11111222,11111222,99999999' 
TABS,ioos:station:wmo:42044:1,2015-03-16T19:00:00Z,26.1914,-97.0507,2.0,89.86508115,63.70017661,-99999.0,'11111222,11111222,99999999' 
TABS,ioos:station:wmo:42044:1,2015-03-16T19:30:00Z,26.1914,-97.0507,2.0,89.75448771,63.01057848,-99999.0,'11111222,11111222,99999999' 
TABS,ioos:station:wmo:42044:1,2015-03-16T20:00:00Z,26.1914,-97.0507,2.0,89.72347876,62.16072393,-99999.0,'11111222,11111222,99999999' 
TABS,ioos:station:wmo:42044:1,2015-03-16T20:30:00Z,26.1914,-97.0507,2.0,89.01636204,62.32918498,-99999.0,'11111222,11111222,99999999' 
TABS,ioos:station:wmo:42044:1,2015-03-16T21:00:00Z,26.1914,-97.0507,2.0,87.2477784,64.14398881,-99999.0,'11111222,11111222,99999999' 
TABS,ioos:station:wmo:42044:1,2015-03-16T21:30:00Z,26.1914,-97.0507,2.0,86.23181325,61.47289809,-99999.0,'11111222,11111222,99999999' 
TABS,ioos:station:wmo:42044:1,2015-03-16T22:00:00Z,26.1914,-97.0507,2.0,84.18803702,60.73218998,-99999.0,'11111222,11111222,99999999' 
TABS,ioos:station:wmo:42044:1,2015-03-16T22:30:00Z,26.1914,-97.0507,2.0,86.8055162,54.19421095,-99999.0,'11111222,11111222,99999999' 
TABS,ioos:station:wmo:42044:1,2015-03-16T23:00:00Z,26.1914,-97.0507,2.0,83.01960892,53.56705144,-99999.0,'11111222,11111222,99999999' 
TABS,ioos:station:wmo:42044:1,2015-03-16T23:30:00Z,26.1914,-97.0507,2.0,82.55002132,51.82750718,-99999.0,'11111222,11111222,99999999' 
TABS,ioos:station:wmo:42044:1,2015-03-17T00:00:00Z,26.1914,-97.0507,2.0,85.42254923,51.62466465,-99999.0,'11111222,11111222,99999999' 
TABS,ioos:station:wmo:42044:1,2015-03-17T00:30:00Z,26.1914,-97.0507,2.0,84.46528927,51.21878562,-99999.0,'11111222,11111222,99999999' 
TABS,ioos:station:wmo:42044:1,2015-03-17T01:00:00Z,26.1914,-97.0507,2.0,86.53822965,48.35823922,-99999.0,'11111222,11111222,99999999' 
TABS,ioos:station:wmo:42044:1,2015-03-17T01:30:00Z,26.1914,-97.0507,2.0,84.57170771,49.6828099,-99999.0,'11111222,11111222,99999999' 
TABS,ioos:station:wmo:42044:1,2015-03-17T02:00:00Z,26.1914,-97.0507,2.0,86.00684544,47.24469282,-99999.0,'11111222,11111222,99999999' 
TABS,ioos:station:wmo:42044:1,2015-03-17T02:30:00Z,26.1914,-97.0507,2.0,81.50651681,46.37865242,-99999.0,'11111222,11111222,99999999' 
TABS,ioos:station:wmo:42044:1,2015-03-17T03:00:00Z,26.1914,-97.0507,2.0,81.25097316,45.29707496,-99999.0,'11111222,11111222,99999999' 
TABS,ioos:station:wmo:42044:1,2015-03-17T03:30:00Z,26.1914,-97.0507,2.0,75.81892077,42.20618438,-99999.0,'11111222,11111222,99999999' 
TABS,ioos:station:wmo:42044:1,2015-03-17T04:00:00Z,26.1914,-97.0507,2.0,76.92850928,45.23202958,-99999.0,'11111222,11111222,99999999' 
TABS,ioos:station:wmo:42044:1,2015-03-17T04:30:00Z,26.1914,-97.0507,2.0,77.02328938,45.64573255,-99999.0,'11111222,11111222,99999999' 
TABS,ioos:station:wmo:42044:1,2015-03-17T05:00:00Z,26.1914,-97.0507,2.0,73.78640048,45.77041512,-99999.0,'11111222,11111222,99999999' 
TABS,ioos:station:wmo:42044:1,2015-03-17T05:30:00Z,26.1914,-97.0507,2.0,65.42022028,44.66767064,-99999.0,'11111222,11111222,99999999' 
TABS,ioos:station:wmo:42044:1,2015-03-17T06:00:00Z,26.1914,-97.0507,2.0,63.8923726,45.38020934,-99999.0,'11111222,11111222,99999999' 
TABS,ioos:station:wmo:42044:1,2015-03-17T06:30:00Z,26.1914,-97.0507,2.0,62.05693271,44.81482009,-99999.0,'11111222,11111222,99999999' 
TABS,ioos:station:wmo:42044:1,2015-03-17T07:00:00Z,26.1914,-97.0507,2.0,60.42751781,43.3007217,-99999.0,'11111222,11111222,99999999' 
TABS,ioos:station:wmo:42044:1,2015-03-17T07:30:00Z,26.1914,-97.0507,2.0,55.57674525,42.26052177,-99999.0,'11111222,11111222,99999999' 
TABS,ioos:station:wmo:42044:1,2015-03-17T08:00:00Z,26.1914,-97.0507,2.0,55.39342519,38.49002468,-99999.0,'11111222,11111222,99999999' 
TABS,ioos:station:wmo:42044:1,2015-03-17T08:30:00Z,26.1914,-97.0507,2.0,61.30779208,40.24117792,-99999.0,'11111222,11111222,99999999' 
TABS,ioos:station:wmo:42044:1,2015-03-17T09:00:00Z,26.1914,-97.0507,2.0,60.14532138,38.81053981,-99999.0,'11111222,11111222,99999999' 
TABS,ioos:station:wmo:42044:1,2015-03-17T09:30:00Z,26.1914,-97.0507,2.0,61.96941052,41.09001095,-99999.0,'11111222,11111222,99999999' 
TABS,ioos:station:wmo:42044:1,2015-03-17T10:00:00Z,26.1914,-97.0507,2.0,60.37164266,39.66639006,-99999.0,'11111222,11111222,99999999' 
TABS,ioos:station:wmo:42044:1,2015-03-17T10:30:00Z,26.1914,-97.0507,2.0,66.67751755,39.4537362,-99999.0,'11111222,11111222,99999999' 
TABS,ioos:station:wmo:42044:1,2015-03-17T11:00:00Z,26.1914,-97.0507,2.0,73.24698937,45.898098,-99999.0,'11111222,11111222,99999999' 
TABS,ioos:station:wmo:42044:1,2015-03-17T11:30:00Z,26.1914,-97.0507,2.0,73.45082108,45.35897706,-99999.0,'11111222,11111222,99999999' 
TABS,ioos:station:wmo:42044:1,2015-03-17T12:00:00Z,26.1914,-97.0507,2.0,74.6304276,39.50277205,-99999.0,'11111222,11111222,99999999' 
TABS,ioos:station:wmo:42044:1,2015-03-17T12:30:00Z,26.1914,-97.0507,2.0,70.70837022,33.20446506,-99999.0,'11111222,11111222,99999999' 
TABS,ioos:station:wmo:42044:1,2015-03-17T13:00:00Z,26.1914,-97.0507,2.0,79.21572735,36.76940032,-99999.0,'11111222,11111222,99999999' 
TABS,ioos:station:wmo:42044:1,2015-03-17T13:30:00Z,26.1914,-97.0507,2.0,83.72201643,40.69404133,-99999.0,'11111222,11111222,99999999' 
TABS,ioos:station:wmo:42044:1,2015-03-17T14:00:00Z,26.1914,-97.0507,2.0,83.22035026,40.74491011,-99999.0,'11111222,11111222,99999999' 
TABS,ioos:station:wmo:42044:1,2015-03-17T14:30:00Z,26.1914,-97.0507,2.0,79.34002977,37.51746926,-99999.0,'11111222,11111222,99999999' 
TABS,ioos:station:wmo:42044:1,2015-03-17T15:00:00Z,26.1914,-97.0507,2.0,84.62790453,39.41311584,-99999.0,'11111222,11111222,99999999' 
TABS,ioos:station:wmo:42044:1,2015-03-17T15:30:00Z,26.1914,-97.0507,2.0,86.71313165,38.89398154,-99999.0,'11111222,11111222,99999999' 
TABS,ioos:station:wmo:42044:1,2015-03-17T16:00:00Z,26.1914,-97.0507,2.0,91.73097784,36.74676857,-99999.0,'11111222,11111222,99999999' 
TABS,ioos:station:wmo:42044:1,2015-03-17T16:30:00Z,26.1914,-97.0507,2.0,88.86869162,36.46710847,-99999.0,'11111222,11111222,99999999' 
TABS,ioos:station:wmo:42044:1,2015-03-17T17:00:00Z,26.1914,-97.0507,2.0,83.19664003,32.92181799,-99999.0,'11111222,11111222,99999999' 
TABS,ioos:station:wmo:42044:1,2015-03-17T17:30:00Z,26.1914,-97.0507,2.0,78.93633928,33.76758801,-99999.0,'11111222,11111222,99999999' 
TABS,ioos:station:wmo:42044:1,2015-03-17T18:00:00Z,26.1914,-97.0507,2.0,79.79675983,31.78262576,-99999.0,'11111222,11111222,99999999' 
TABS,ioos:station:wmo:42044:1,2015-03-17T18:30:00Z,26.1914,-97.0507,2.0,77.22809331,32.20687039,-99999.0,'11111222,11111222,99999999' 
TABS,ioos:station:wmo:42044:1,2015-03-17T19:00:00Z,26.1914,-97.0507,2.0,76.84497149,29.17563538,-99999.0,'11111222,11111222,99999999' 
TABS,ioos:station:wmo:42044:1,2015-03-17T19:30:00Z,26.1914,-97.0507,2.0,77.01135343,28.91993084,-99999.0,'11111222,11111222,99999999' 
TABS,ioos:station:wmo:42044:1,2015-03-17T20:00:00Z,26.1914,-97.0507,2.0,77.64765295,25.0089464,-99999.0,'11111222,11111222,99999999' 
TABS,ioos:station:wmo:42044:1,2015-03-17T20:30:00Z,26.1914,-97.0507,2.0,78.79773577,26.09722016,-99999.0,'11111222,11111222,99999999' 
TABS,ioos:station:wmo:42044:1,2015-03-17T21:00:00Z,26.1914,-97.0507,2.0,101.1087001,27.9231875,-99999.0,'11111222,11111222,99999999' 
TABS,ioos:station:wmo:42044:1,2015-03-17T21:30:00Z,26.1914,-97.0507,2.0,111.2573951,29.92615244,-99999.0,'11111222,11111222,99999999' 
TABS,ioos:station:wmo:42044:1,2015-03-17T22:00:00Z,26.1914,-97.0507,2.0,117.9090284,35.27249637,-99999.0,'11111222,11111222,99999999' 
TABS,ioos:station:wmo:42044:1,2015-03-17T22:30:00Z,26.1914,-97.0507,2.0,119.9980309,44.06252943,-99999.0,'11111222,11111222,99999999' 
TABS,ioos:station:wmo:42044:1,2015-03-17T23:00:00Z,26.1914,-97.0507,2.0,119.9561831,41.35470227,-99999.0,'11111222,11111222,99999999' 
TABS,ioos:station:wmo:42044:1,2015-03-17T23:30:00Z,26.1914,-97.0507,2.0,121.2095413,37.16923055,-99999.0,'11111222,11111222,99999999' 
TABS,ioos:station:wmo:42044:1,2015-03-18T00:00:00Z,26.1914,-97.0507,2.0,125.9388992,33.36040318,-99999.0,'11111222,11111222,99999999' 
TABS,ioos:station:wmo:42044:1,2015-03-18T00:30:00Z,26.1914,-97.0507,2.0,123.5493122,31.62910052,-99999.0,'11111222,11111222,99999999' 
TABS,ioos:station:wmo:42044:1,2015-03-18T01:00:00Z,26.1914,-97.0507,2.0,125.1074245,29.26384288,-99999.0,'11111222,11111222,99999999' 
TABS,ioos:station:wmo:42044:1,2015-03-18T01:30:00Z,26.1914,-97.0507,2.0,121.7523132,26.16630276,-99999.0,'11111222,11111222,99999999' 
TABS,ioos:station:wmo:42044:1,2015-03-18T02:00:00Z,26.1914,-97.0507,2.0,119.6545045,24.3951819,-99999.0,'11111222,11111222,99999999' 
TABS,ioos:station:wmo:42044:1,2015-03-18T02:30:00Z,26.1914,-97.0507,2.0,121.5934818,21.53123313,-99999.0,'11111222,11111222,99999999' 
TABS,ioos:station:wmo:42044:1,2015-03-18T03:00:00Z,26.1914,-97.0507,2.0,122.8100907,21.13102222,-99999.0,'11111222,11111222,99999999' 
TABS,ioos:station:wmo:42044:1,2015-03-18T03:30:00Z,26.1914,-97.0507,2.0,119.9379858,18.39445569,-99999.0,'11111222,11111222,99999999' 
TABS,ioos:station:wmo:42044:1,2015-03-18T04:00:00Z,26.1914,-97.0507,2.0,119.5680744,15.27991165,-99999.0,'11111222,11111222,99999999' 
TABS,ioos:station:wmo:42044:1,2015-03-18T04:30:00Z,26.1914,-97.0507,2.0,113.4438772,13.79911954,-99999.0,'11111222,11111222,99999999' 
TABS,ioos:station:wmo:42044:1,2015-03-18T05:00:00Z,26.1914,-97.0507,2.0,108.280262,14.05953769,-99999.0,'11111222,11111222,99999999' 
TABS,ioos:station:wmo:42044:1,2015-03-18T05:30:00Z,26.1914,-97.0507,2.0,101.4541788,11.68267521,-99999.0,'11111222,11111222,99999999' 
TABS,ioos:station:wmo:42044:1,2015-03-18T06:00:00Z,26.1914,-97.0507,2.0,87.73391852,12.1394934,-99999.0,'11111222,11111222,99999999' 
TABS,ioos:station:wmo:42044:1,2015-03-18T06:30:00Z,26.1914,-97.0507,2.0,73.67755368,13.98360826,-99999.0,'11111222,11111222,99999999' 
TABS,ioos:station:wmo:42044:1,2015-03-18T07:00:00Z,26.1914,-97.0507,2.0,69.71829831,14.42431627,-99999.0,'11111222,11111222,99999999' 
TABS,ioos:station:wmo:42044:1,2015-03-18T07:30:00Z,26.1914,-97.0507,2.0,59.20902265,13.65477938,-99999.0,'11111222,11111222,99999999' 
TABS,ioos:station:wmo:42044:1,2015-03-18T08:00:00Z,26.1914,-97.0507,2.0,54.02257194,16.05194692,-99999.0,'11111222,11111222,99999999' 
TABS,ioos:station:wmo:42044:1,2015-03-18T08:30:00Z,26.1914,-97.0507,2.0,57.15603221,18.03249567,-99999.0,'11111222,11111222,99999999' 
TABS,ioos:station:wmo:42044:1,2015-03-18T09:00:00Z,26.1914,-97.0507,2.0,56.57239581,19.98605764,-99999.0,'11111222,11111222,99999999' 
TABS,ioos:station:wmo:42044:1,2015-03-18T09:30:00Z,26.1914,-97.0507,2.0,61.35331986,21.42225245,-99999.0,'11111222,11111222,99999999' 
TABS,ioos:station:wmo:42044:1,2015-03-18T10:00:00Z,26.1914,-97.0507,2.0,69.00781814,19.98652546,-99999.0,'11111222,11111222,99999999' 
TABS,ioos:station:wmo:42044:1,2015-03-18T10:30:00Z,26.1914,-97.0507,2.0,69.905323,25.87512512,-99999.0,'11111222,11111222,99999999' 
TABS,ioos:station:wmo:42044:1,2015-03-18T11:00:00Z,26.1914,-97.0507,2.0,77.21205725,18.70393541,-99999.0,'11111222,11111222,99999999' 
TABS,ioos:station:wmo:42044:1,2015-03-18T11:30:00Z,26.1914,-97.0507,2.0,72.04112491,20.17286544,-99999.0,'11111222,11111222,99999999' 
TABS,ioos:station:wmo:42044:1,2015-03-18T12:00:00Z,26.1914,-97.0507,2.0,83.06292082,27.98486734,-99999.0,'11111222,11111222,99999999' 
TABS,ioos:station:wmo:42044:1,2015-03-18T12:30:00Z,26.1914,-97.0507,2.0,100.2190505,32.86129182,-99999.0,'11111222,11111222,99999999' 
TABS,ioos:station:wmo:42044:1,2015-03-18T13:00:00Z,26.1914,-97.0507,2.0,108.4437998,40.74278586,-99999.0,'11111222,11111222,99999999' 
TABS,ioos:station:wmo:42044:1,2015-03-18T13:30:00Z,26.1914,-97.0507,2.0,113.1106199,43.64237047,-99999.0,'11111222,11111222,99999999' 
TABS,ioos:station:wmo:42044:1,2015-03-18T14:00:00Z,26.1914,-97.0507,2.0,112.9113309,48.9844802,-99999.0,'11111222,11111222,99999999' 
TABS,ioos:station:wmo:42044:1,2015-03-18T14:30:00Z,26.1914,-97.0507,2.0,111.209339,49.06332745,-99999.0,'11111222,11111222,99999999' 
TABS,ioos:station:wmo:42044:1,2015-03-18T15:00:00Z,26.1914,-97.0507,2.0,111.5381722,50.93676865,-99999.0,'11111222,11111222,99999999' 
TABS,ioos:station:wmo:42044:1,2015-03-18T15:30:00Z,26.1914,-97.0507,2.0,109.0819774,56.28264475,-99999.0,'11111222,11111222,99999999' 
TABS,ioos:station:wmo:42044:1,2015-03-18T16:00:00Z,26.1914,-97.0507,2.0,107.2589139,52.84962914,-99999.0,'11111222,11111222,99999999' 
TABS,ioos:station:wmo:42044:1,2015-03-18T16:30:00Z,26.1914,-97.0507,2.0,108.7546365,51.56806473,-99999.0,'11111222,11111222,99999999' 
TABS,ioos:station:wmo:42044:1,2015-03-18T17:00:00Z,26.1914,-97.0507,2.0,108.2348856,52.53840119,-99999.0,'11111222,11111222,99999999' 
TABS,ioos:station:wmo:42044:1,2015-03-18T17:30:00Z,26.1914,-97.0507,2.0,106.6592453,48.06756599,-99999.0,'11111222,11111222,99999999' 
TABS,ioos:station:wmo:42044:1,2015-03-18T18:00:00Z,26.1914,-97.0507,2.0,106.4029818,45.57494158,-99999.0,'11111222,11111222,99999999' 
TABS,ioos:station:wmo:42044:1,2015-03-18T18:30:00Z,26.1914,-97.0507,2.0,106.4596968,44.68107094,-99999.0,'11111222,11111222,99999999' 
TABS,ioos:station:wmo:42044:1,2015-03-18T19:00:00Z,26.1914,-97.0507,2.0,109.523072,42.46123526,-99999.0,'11111222,11111222,99999999' 
TABS,ioos:station:wmo:42044:1,2015-03-18T19:30:00Z,26.1914,-97.0507,2.0,111.7916061,43.6384051,-99999.0,'11111222,11111222,99999999' 
TABS,ioos:station:wmo:42044:1,2015-03-18T20:00:00Z,26.1914,-97.0507,2.0,113.0741022,41.71746517,-99999.0,'11111222,11111222,99999999' 
TABS,ioos:station:wmo:42044:1,2015-03-18T20:30:00Z,26.1914,-97.0507,2.0,116.8245512,41.46159789,-99999.0,'11111222,11111222,99999999' 
TABS,ioos:station:wmo:42044:1,2015-03-18T21:00:00Z,26.1914,-97.0507,2.0,120.3409047,42.44326213,-99999.0,'11111222,11111222,99999999' 
TABS,ioos:station:wmo:42044:1,2015-03-18T21:30:00Z,26.1914,-97.0507,2.0,125.0797376,42.76887186,-99999.0,'11111222,11111222,99999999' 
TABS,ioos:station:wmo:42044:1,2015-03-18T22:00:00Z,26.1914,-97.0507,2.0,121.0498157,43.35146134,-99999.0,'11111222,11111222,99999999' 
TABS,ioos:station:wmo:42044:1,2015-03-18T22:30:00Z,26.1914,-97.0507,2.0,125.9696567,42.39323177,-99999.0,'11111222,11111222,99999999' 
TABS,ioos:station:wmo:42044:1,2015-03-18T23:00:00Z,26.1914,-97.0507,2.0,126.9055937,41.63200812,-99999.0,'11111222,11111222,99999999' 
TABS,ioos:station:wmo:42044:1,2015-03-18T23:30:00Z,26.1914,-97.0507,2.0,122.2444361,40.12868924,-99999.0,'11111222,11111222,99999999' 
TABS,ioos:station:wmo:42044:1,2015-03-19T00:00:00Z,26.1914,-97.0507,2.0,115.2460275,37.30302535,-99999.0,'11111222,11111222,99999999' 
TABS,ioos:station:wmo:42044:1,2015-03-19T00:30:00Z,26.1914,-97.0507,2.0,112.7336902,35.60622417,-99999.0,'11111222,11111222,99999999' 
TABS,ioos:station:wmo:42044:1,2015-03-19T01:00:00Z,26.1914,-97.0507,2.0,110.622975,34.04144092,-99999.0,'11111222,11111222,99999999' 
TABS,ioos:station:wmo:42044:1,2015-03-19T01:30:00Z,26.1914,-97.0507,2.0,111.239385,34.83626415,-99999.0,'11111222,11111222,99999999' 
TABS,ioos:station:wmo:42044:1,2015-03-19T02:00:00Z,26.1914,-97.0507,2.0,110.0355651,31.69839113,-99999.0,'11111222,11111222,99999999' 
TABS,ioos:station:wmo:42044:1,2015-03-19T02:30:00Z,26.1914,-97.0507,2.0,108.3995308,30.73102016,-99999.0,'11111222,11111222,99999999' 
TABS,ioos:station:wmo:42044:1,2015-03-19T03:00:00Z,26.1914,-97.0507,2.0,104.5110256,31.60832802,-99999.0,'11111222,11111222,99999999' 
TABS,ioos:station:wmo:42044:1,2015-03-19T03:30:00Z,26.1914,-97.0507,2.0,108.1227655,31.34496132,-99999.0,'11111222,11111222,99999999' 
TABS,ioos:station:wmo:42044:1,2015-03-19T04:00:00Z,26.1914,-97.0507,2.0,104.6505793,29.17871313,-99999.0,'11111222,11111222,99999999' 
TABS,ioos:station:wmo:42044:1,2015-03-19T04:30:00Z,26.1914,-97.0507,2.0,108.3046886,27.82811528,-99999.0,'11111222,11111222,99999999' 
TABS,ioos:station:wmo:42044:1,2015-03-19T05:00:00Z,26.1914,-97.0507,2.0,105.7949214,26.15766236,-99999.0,'11111222,11111222,99999999' 
TABS,ioos:station:wmo:42044:1,2015-03-19T05:30:00Z,26.1914,-97.0507,2.0,112.623251,25.63230774,-99999.0,'11111222,11111222,99999999' 
TABS,ioos:station:wmo:42044:1,2015-03-19T06:00:00Z,26.1914,-97.0507,2.0,109.1659338,25.28130535,-99999.0,'11111222,11111222,99999999' 
TABS,ioos:station:wmo:42044:1,2015-03-19T06:30:00Z,26.1914,-97.0507,2.0,105.5185767,22.31346903,-99999.0,'11111222,11111222,99999999' 
TABS,ioos:station:wmo:42044:1,2015-03-19T07:00:00Z,26.1914,-97.0507,2.0,101.7671426,20.88899471,-99999.0,'11111222,11111222,99999999' 
TABS,ioos:station:wmo:42044:1,2015-03-19T07:30:00Z,26.1914,-97.0507,2.0,105.4455648,20.31365304,-99999.0,'11111222,11111222,99999999' 
TABS,ioos:station:wmo:42044:1,2015-03-19T08:00:00Z,26.1914,-97.0507,2.0,100.517681,18.29742332,-99999.0,'11111222,11111222,99999999' 
TABS,ioos:station:wmo:42044:1,2015-03-19T08:30:00Z,26.1914,-97.0507,2.0,96.14893492,18.85849676,-99999.0,'11111222,11111222,99999999' 
TABS,ioos:station:wmo:42044:1,2015-03-19T09:00:00Z,26.1914,-97.0507,2.0,90.89258931,17.33210316,-99999.0,'11111222,11111222,99999999' 
TABS,ioos:station:wmo:42044:1,2015-03-19T09:30:00Z,26.1914,-97.0507,2.0,90.30279272,17.03023781,-99999.0,'11111222,11111222,99999999' 
TABS,ioos:station:wmo:42044:1,2015-03-19T10:00:00Z,26.1914,-97.0507,2.0,84.38014406,16.33853115,-99999.0,'11111222,11111222,99999999' 
TABS,ioos:station:wmo:42044:1,2015-03-19T10:30:00Z,26.1914,-97.0507,2.0,78.97451569,17.7781467,-99999.0,'11111222,11111222,99999999' 
TABS,ioos:station:wmo:42044:1,2015-03-19T11:00:00Z,26.1914,-97.0507,2.0,75.44130577,18.61780868,-99999.0,'11111222,11111222,99999999' 
TABS,ioos:station:wmo:42044:1,2015-03-19T11:30:00Z,26.1914,-97.0507,2.0,71.82854157,19.94469604,-99999.0,'11111222,11111222,99999999' 
TABS,ioos:station:wmo:42044:1,2015-03-19T12:00:00Z,26.1914,-97.0507,2.0,71.95461369,20.46673398,-99999.0,'11111222,11111222,99999999' 
TABS,ioos:station:wmo:42044:1,2015-03-19T12:30:00Z,26.1914,-97.0507,2.0,68.90273278,19.94704239,-99999.0,'11111222,11111222,99999999' 
TABS,ioos:station:wmo:42044:1,2015-03-19T13:00:00Z,26.1914,-97.0507,2.0,68.19342046,20.3782065,-99999.0,'11111222,11111222,99999999' 
TABS,ioos:station:wmo:42044:1,2015-03-19T13:30:00Z,26.1914,-97.0507,2.0,71.38172217,21.73760796,-99999.0,'11111222,11111222,99999999' 
TABS,ioos:station:wmo:42044:1,2015-03-19T14:00:00Z,26.1914,-97.0507,2.0,66.66601329,21.66168276,-99999.0,'11111222,11111222,99999999' 
TABS,ioos:station:wmo:42044:1,2015-03-19T14:30:00Z,26.1914,-97.0507,2.0,66.23412571,20.42177759,-99999.0,'11111222,11111222,99999999' 
TABS,ioos:station:wmo:42044:1,2015-03-19T15:00:00Z,26.1914,-97.0507,2.0,68.24026942,20.44691908,-99999.0,'11111222,11111222,99999999' 
TABS,ioos:station:wmo:42044:1,2015-03-19T15:30:00Z,26.1914,-97.0507,2.0,67.17348325,19.6162815,-99999.0,'11111222,11111222,99999999' 
TABS,ioos:station:wmo:42044:1,2015-03-19T16:00:00Z,26.1914,-97.0507,2.0,68.89150971,20.27012827,-99999.0,'11111222,11111222,99999999' 